Total_Precipitation_Accumulation
0.05 0.09 0.15 0.19 0.17 0.13 0.09 0.07 0.09 0.14 0.29 0.38 0.45 0.47 0.44 0.42 0.40 0.38 0.34 0.32 0.27 0.24 0.27 0.35 0.46 0.48 0.53 0.61 0.74 0.76 0.90 1.01 1.08 1.18 1.26 1.30 1.35 1.35 1.31 1.31 1.32 1.42 1.49 1.50
0.04 0.07 0.11 0.13 0.16 0.11 0.09 0.07 0.07 0.14 0.32 0.40 0.38 0.38 0.45 0.45 0.43 0.39 0.35 0.30 0.30 0.32 0.34 0.38 0.44 0.50 0.56 0.58 0.70 0.85 1.05 1.21 1.33 1.47 1.54 1.61 1.73 1.83 1.73 1.63 1.69 1.76 1.71 1.63
0.07 0.10 0.11 0.15 0.14 0.12 0.13 0.12 0.12 0.19 0.30 0.35 0.38 0.45 0.66 0.69 0.62 0.57 0.46 0.43 0.44 0.46 0.47 0.48 0.50 0.54 0.58 0.64 0.76 0.96 1.18 1.41 1.55 1.66 1.77 1.90 1.99 2.02 1.97 2.02 2.09 2.12 2.03 1.85
0.12 0.16 0.22 0.19 0.19 0.17 0.18 0.21 0.22 0.28 0.34 0.44 0.60 0.69 0.78 0.85 0.77 0.67 0.55 0.50 0.50 0.60 0.63 0.58 0.60 0.69 0.77 0.89 1.05 1.24 1.40 1.57 1.73 1.76 1.78 1.86 1.95 1.91 1.93 2.04 2.12 2.14 2.07 1.95
0.22 0.25 0.24 0.25 0.28 0.29 0.32 0.42 0.40 0.47 0.54 0.63 0.71 0.69 0.70 0.65 0.59 0.49 0.49 0.56 0.57 0.63 0.72 0.75 0.76 0.84 0.90 0.97 1.08 1.26 1.41 1.49 1.54 1.64 1.75 1.80 1.84 1.89 1.94 1.95 1.86 1.77 1.75 1.76
0.36 0.38 0.39 0.41 0.43 0.39 0.44 0.77 0.72 0.65 0.67 0.68 0.72 0.89 0.83 0.66 0.57 0.54 0.53 0.55 0.59 0.58 0.63 0.71 0.81 0.84 0.86 0.95 1.07 1.26 1.41 1.42 1.43 1.55 1.66 1.73 1.79 1.85 1.82 1.76 1.70 1.66 1.59 1.61
0.49 0.52 0.47 0.46 0.41 0.38 0.64 0.89 0.81 0.82 0.89 0.84 0.90 0.96 0.88 0.73 0.69 0.62 0.58 0.54 0.55 0.61 0.64 0.67 0.76 0.81 0.89 0.99 1.06 1.13 1.24 1.31 1.39 1.52 1.64 1.69 1.77 1.77 1.74 1.69 1.70 1.71 1.64 1.57
0.64 0.78 0.79 0.59 0.49 0.65 0.84 0.68 0.79 0.86 0.83 0.87 0.86 0.79 0.78 0.76 0.77 0.72 0.62 0.62 0.62 0.65 0.77 0.83 0.86 0.85 0.90 0.91 0.90 0.97 1.03 1.10 1.15 1.24 1.39 1.45 1.54 1.54 1.57 1.53 1.49 1.47 1.45 1.37
0.86 0.95 0.79 0.67 0.69 0.73 0.73 0.69 0.73 0.82 0.86 0.89 0.93 0.89 0.76 0.72 0.69 0.78 0.80 0.74 0.71 0.70 0.73 0.78 0.89 0.93 0.98 0.93 0.87 0.86 0.87 0.88 0.92 0.99 1.17 1.32 1.37 1.35 1.38 1.38 1.35 1.31 1.28 1.23
1.03 1.07 0.93 0.86 0.82 0.74 0.73 0.74 0.73 0.81 0.95 0.98 0.95 0.83 0.74 0.64 0.54 0.50 0.52 0.53 0.60 0.66 0.72 0.77 0.78 0.80 0.86 0.87 0.85 0.88 0.90 0.90 0.95 1.01 1.12 1.35 1.45 1.36 1.30 1.28 1.24 1.22 1.18 1.18
1.12 1.19 1.01 0.90 0.85 0.84 0.81 0.78 0.79 0.87 0.96 0.95 0.84 0.77 0.70 0.59 0.49 0.42 0.39 0.39 0.45 0.52 0.54 0.57 0.57 0.61 0.66 0.70 0.77 0.81 0.81 0.78 0.78 0.85 0.98 1.20 1.33 1.32 1.17 1.14 1.17 1.19 1.17 1.14
1.18 1.08 1.10 1.12 1.01 0.96 0.97 0.94 0.92 0.95 1.00 0.92 0.80 0.73 0.65 0.52 0.43 0.39 0.36 0.35 0.41 0.46 0.49 0.51 0.54 0.61 0.69 0.77 0.85 0.87 0.83 0.77 0.75 0.77 0.87 1.06 1.27 1.35 1.19 1.00 1.00 0.98 0.94 0.90
1.01 0.97 1.06 1.13 1.13 1.14 1.19 1.10 1.03 1.03 0.97 0.86 0.83 0.72 0.60 0.53 0.45 0.41 0.38 0.37 0.41 0.44 0.49 0.56 0.59 0.57 0.61 0.72 0.81 0.87 0.85 0.80 0.78 0.77 0.81 0.92 1.16 1.39 1.44 1.19 0.97 0.86 0.75 0.66
0.96 0.98 1.13 1.19 1.25 1.27 1.23 1.14 1.06 1.09 1.03 0.91 0.81 0.70 0.60 0.57 0.51 0.46 0.45 0.47 0.52 0.57 0.62 0.65 0.65 0.62 0.60 0.66 0.75 0.81 0.83 0.81 0.73 0.69 0.71 0.80 1.03 1.31 1.50 1.44 1.26 0.99 0.71 0.54
0.93 1.04 1.08 1.02 1.08 1.12 1.11 1.05 0.98 1.04 1.01 0.92 0.79 0.65 0.57 0.56 0.58 0.57 0.58 0.63 0.72 0.75 0.71 0.69 0.67 0.65 0.62 0.65 0.71 0.75 0.80 0.79 0.73 0.71 0.72 0.76 0.94 1.20 1.38 1.44 1.36 1.22 0.91 0.60
0.92 0.96 0.87 0.83 0.92 0.99 1.00 0.94 0.85 0.89 0.88 0.82 0.77 0.70 0.62 0.59 0.59 0.59 0.63 0.75 0.90 0.92 0.80 0.74 0.71 0.71 0.71 0.72 0.68 0.66 0.69 0.69 0.58 0.56 0.60 0.63 0.73 0.94 1.17 1.29 1.22 1.15 0.97 0.61
0.90 0.95 0.91 0.84 0.90 0.99 1.00 0.91 0.84 0.85 0.84 0.83 0.82 0.77 0.75 0.74 0.71 0.72 0.79 0.85 0.87 0.87 0.79 0.74 0.69 0.64 0.65 0.69 0.71 0.65 0.60 0.55 0.45 0.39 0.45 0.50 0.55 0.72 0.96 1.13 1.08 0.99 0.86 0.55
0.76 0.73 0.75 0.74 0.78 0.86 0.84 0.76 0.74 0.74 0.78 0.86 0.88 0.83 0.86 0.90 0.93 1.00 1.04 1.02 0.92 0.79 0.70 0.67 0.62 0.57 0.55 0.51 0.48 0.46 0.45 0.45 0.42 0.42 0.46 0.48 0.51 0.67 0.90 1.05 1.01 0.95 0.85 0.61
0.62 0.58 0.58 0.54 0.55 0.57 0.56 0.55 0.54 0.55 0.59 0.68 0.73 0.76 0.81 0.84 0.88 0.98 1.00 1.09 1.13 1.00 0.77 0.58 0.56 0.49 0.47 0.41 0.38 0.36 0.34 0.35 0.34 0.36 0.39 0.39 0.49 0.67 0.83 0.91 0.89 0.85 0.74 0.62
0.58 0.57 0.48 0.45 0.44 0.44 0.43 0.41 0.40 0.43 0.48 0.56 0.57 0.58 0.65 0.72 0.81 0.95 1.02 1.11 1.16 1.06 0.84 0.66 0.52 0.42 0.34 0.27 0.26 0.28 0.31 0.33 0.34 0.35 0.37 0.43 0.53 0.67 0.74 0.74 0.72 0.70 0.67 0.67
0.57 0.55 0.42 0.38 0.35 0.33 0.32 0.31 0.29 0.31 0.36 0.40 0.42 0.43 0.50 0.58 0.68 0.86 1.14 1.31 1.14 0.91 0.75 0.65 0.49 0.35 0.27 0.23 0.19 0.20 0.25 0.30 0.35 0.40 0.44 0.49 0.58 0.67 0.69 0.68 0.64 0.62 0.62 0.65
0.58 0.50 0.42 0.36 0.31 0.31 0.28 0.27 0.26 0.27 0.28 0.29 0.31 0.37 0.43 0.53 0.65 0.75 0.91 1.16 1.16 1.02 0.74 0.54 0.40 0.29 0.24 0.21 0.18 0.20 0.22 0.25 0.32 0.38 0.42 0.46 0.56 0.64 0.63 0.58 0.53 0.52 0.55 0.61
0.57 0.48 0.44 0.37 0.30 0.27 0.24 0.24 0.25 0.27 0.26 0.26 0.29 0.34 0.40 0.49 0.60 0.84 0.96 0.87 0.91 1.00 0.77 0.55 0.46 0.35 0.24 0.19 0.21 0.23 0.23 0.28 0.36 0.38 0.37 0.41 0.44 0.50 0.54 0.51 0.52 0.53 0.58 0.58
0.55 0.48 0.40 0.32 0.28 0.27 0.28 0.26 0.26 0.29 0.26 0.23 0.21 0.22 0.30 0.41 0.49 0.60 0.77 0.83 0.84 0.89 0.69 0.53 0.43 0.33 0.26 0.23 0.27 0.31 0.38 0.45 0.46 0.40 0.35 0.36 0.39 0.43 0.49 0.48 0.46 0.50 0.55 0.56
0.54 0.44 0.35 0.29 0.28 0.28 0.27 0.23 0.23 0.26 0.24 0.23 0.21 0.21 0.23 0.30 0.45 0.59 0.67 0.72 0.83 0.88 0.75 0.60 0.47 0.39 0.34 0.36 0.40 0.49 0.56 0.49 0.42 0.37 0.33 0.34 0.38 0.43 0.45 0.48 0.51 0.51 0.51 0.52
0.50 0.46 0.39 0.32 0.29 0.27 0.26 0.25 0.25 0.24 0.23 0.24 0.23 0.22 0.24 0.29 0.37 0.48 0.59 0.63 0.69 0.79 0.74 0.57 0.40 0.37 0.38 0.43 0.48 0.52 0.51 0.45 0.40 0.38 0.36 0.38 0.41 0.44 0.44 0.47 0.51 0.50 0.50 0.52
0.42 0.41 0.39 0.34 0.32 0.29 0.27 0.28 0.28 0.27 0.27 0.30 0.34 0.34 0.36 0.39 0.43 0.49 0.54 0.59 0.61 0.60 0.55 0.44 0.33 0.32 0.32 0.33 0.38 0.41 0.41 0.42 0.41 0.40 0.41 0.43 0.45 0.46 0.43 0.41 0.41 0.41 0.41 0.41